Regional Weather Roundup
Issued by NWS Wakefield, VA

Home | Current Version | Previous Version | Graphics & Text | Print | Product List | Glossary On
Versions: 1 2 3 4 5 6 7 8 9 10 11 12 13 14 15 16 17 18 19 20 21 22 23 24 25 26 27 28 29 30 31 32 33 34 35 36 37 38 39 40 41 42 43 44 45 46 47 48 49 50
000
ASUS41 KAKQ 041715
RWRAKQ

REGIONAL WEATHER ROUNDUP
NATIONAL WEATHER SERVICE WAKEFIELD VA
100 PM EDT MON MAY 04 2015

Note: "fair" indicates few or no clouds below 12,000 feet with no
significant weather and/or obstructions to visibility. * = Denotes
station may not report precipitation (e.g., rain,snow,etc.),
thunder or fog.

VAZ042-051-052>054-056-041800-
NORTHERN VIRGINIA

CITY           SKY/WX    TMP DP  RH WIND       PRES   REMARKS
WASH NATIONAL  MOSUNNY   81  53  37 SW18      30.22F
DULLES         SUNNY     81  45  28 S13G22    30.21F
FORT BELVOIR   SUNNY     82  49  32 S12G18    30.22F
QUANTICO       MOSUNNY   74  57  55 S14       30.23F
FREDERICKSBRG* SUNNY     84  47  28 SW8G20    30.23F
STAFFORD*      SUNNY     80  40  23 S12G20    30.27F
WARRENTON      SUNNY     83  52  33 S9G21     30.22F
CULPEPER*      NOT AVBL
MANASSAS*      SUNNY     82  46  28 SW10G16   30.22F
LEESBURG*      SUNNY     84  52  32 S15G28    30.21F
WINCHESTER     SUNNY     82  32  16 SW13G20   30.20F
FRONT ROYAL*   FAIR      81  43  26 SW7       30.19F
LURAY*         FAIR      82  46  28 S10       30.21F
$$

VAZ048-049-060>072-079>083-041800-
CENTRAL AND SOUTH CENTRAL VIRGINIA

CITY           SKY/WX    TMP DP  RH WIND       PRES   REMARKS
RICHMOND       MOSUNNY   81  50  33 SW14      30.26F
CHESTERFIELD*  FAIR      81  50  34 S10       30.27F
PETERSBURG*    MOSUNNY   82  48  30 SW8       30.27F
HANOVER        SUNNY     80  50  34 SW8       30.27F
TAPPAHANNOCK*  SUNNY     81  40  22 S5        30.26F
QUINTON*       FAIR      80  51  36 S7        30.26F
CHARLOTTSVILLE SUNNY     80  52  37 S10G20    30.23F
GORDONSVILLE*  FAIR      80  52  36 S10G16    30.22F
ORANGE*        SUNNY     81  48  32 SE14G24   30.24F
LOUISA*        SUNNY     82  52  34 S10       30.23F
BUMPASS*       FAIR      80  48  33 SW12G21   30.25F
FARMVILLE*     SUNNY     81  52  36 SW7       30.25F
CREWE*         FAIR      79  51  37 SW5       30.27F
FORT PICKETT*  FAIR      79  54  41 SW9G17    30.28F
CHASE CITY*    FAIR      81  60  49 W5        30.28F
CLARKSVILLE*   FAIR      77  57  50 SW8       30.28F
SOUTH HILL*    SUNNY     77  55  46 S9        30.34F
LAWRENCEVILLE* FAIR      79  54  41 SW10      30.28F
EMPORIA*       SUNNY     79  52  38 S10       30.30F
$$

VAZ088>098-041800-
SOUTHEAST VIRGINIA

CITY           SKY/WX    TMP DP  RH WIND       PRES   REMARKS
NORFOLK        MOSUNNY   81  45  28 S15G22    30.29F
VIRGINIA BEACH MOSUNNY   82  49  31 SW15      30.29F
NORFOLK NAVAL  MOSUNNY   82  50  32 SW13      30.30F
WEST POINT*    SUNNY     83  43  23 SW9       30.29F
SALUDA*        FAIR      80  46  30 SW8G16    30.27F
NEWPORT NEWS   SUNNY     82  53  36 S12       30.29F
LANGLEY AFB    SUNNY     78  53  42 SW15G21   30.28F
FORT EUSTIS    SUNNY     79  55  43 S9        30.27F
WILLIAMSBURG*  SUNNY     84  55  37 S10       30.29F
HR EXEC AP*    FAIR      81  48  32 S12G20    30.31F
FRANKLIN*      SUNNY     78  51  38 SW9       30.30F
WAKEFIELD      SUNNY     80  52  37 MISG      30.28F
$$

VAZ020-022-025-037-045-041800-
WEST CENTRAL AND SOUTHWEST VIRGINIA

CITY           SKY/WX    TMP DP  RH WIND       PRES   REMARKS
STAUNTON*      SUNNY     80  42  26 SW12      30.26F
WAYNESBORO*    FAIR      78  47  33 SW6       30.26F
HOT SPRINGS VA MOSUNNY   69  39  34 W6G16     30.34F
LYNCHBURG      SUNNY     78  52  40 SW9       30.28F
DANVILLE       SUNNY     80  54  40 SW7       30.28F
SOUTH BOSTON*  FAIR      79  52  39 SW10      30.28F
MARTINSVILLE   SUNNY     80  51  36 S7        30.30F
ROANOKE        MOSUNNY   79  46  31 VRB5      30.27F
BLACKSBURG     MOSUNNY   73  49  42 NW5       30.33F
DUBLIN*        CLOUDY    73  50  43 SW3       30.32F
MARION*        SUNNY     74  49  40 SW9G16    30.35F
HILLSVILLE*    CLOUDY    70  48  45 W8        30.34F
RICHLANDS*     FAIR      72  43  35 SW8       30.34F
WISE*          SUNNY     72  41  33 SW13G18   30.36F
ABINGDON*      MOSUNNY   75  46  35 NW8       30.34F
$$

MDZ021>025-VAZ099-100-041800-
SOUTHERN MARYLAND AND THE DELMARVA PENINSULA

CITY           SKY/WX    TMP DP  RH WIND       PRES   REMARKS
PATUXENT RIVER MOSUNNY   79  47  32 S16       30.25F
BAY BRIDGE APT   N/A    N/A N/A N/A S14       30.23F
LEONARDTOWN    SUNNY     79  45  29 S12G18    30.27S
DOVER          SUNNY     81  48  30 S14G23    30.21F
GEORGETOWN     SUNNY     81  40  23 S16G25    30.25F
EASTON         MOSUNNY   82  50  32 MISG      30.28F
CAMBRIDGE      SUNNY     81  46  30 SW8       30.25F
SALISBURY      SUNNY     80  43  26 SW10      30.25F
OCEAN CITY     MOSUNNY   76  55  48 S8        30.27F
WALLOPS ISLAND MOSUNNY   80  51  36 S8        30.28F
ACCOMACK*      SUNNY     81  52  36 SW13      30.28F
$$

NCZ012>017-030>032-041800-
NORTH CENTRAL AND EASTERN NORTH CAROLINA

CITY           SKY/WX    TMP DP  RH WIND       PRES   REMARKS
ROANOKE RAPIDS FAIR      77  52  41 S8G16     30.30F
RALEIGH        MOSUNNY   79  59  50 SW12      30.31F
ELIZABETH CITY SUNNY     79  47  32 SW13      30.32F
AHOSKIE*       SUNNY     79  49  35 S6        30.30F
EDENTON*       SUNNY     79  47  32 SW6       30.32F
CURRITUCK*     SUNNY     80  37  21 S3        30.31F
KILL DEVIL HLS SUNNY     77  48  36 NW3       30.31F
MANTEO         PTSUNNY   74  54  49 SW7       30.33F
CAPE HATTERAS  SUNNY     67  59  75 SW8       30.35F
TARBORO*       FAIR      80  49  33 SW9       30.32F
GOLDSBORO      MOSUNNY   80  47  31 SW8       30.30F
WASHINGTON     SUNNY     78  46  31 SW8       30.33F
GREENVILLE     SUNNY     81  46  30 SW9G16    30.33F
NEW BERN       MOSUNNY   81  45  28 S7        30.34F
WILMINGTON     SUNNY     78  54  43 SE12G18   30.33F
$$

VAZ048-041800-
ELSEWHERE

CITY           SKY/WX    TMP DP  RH WIND       PRES   REMARKS
HARRISBURG PA  SUNNY     81  44  27 SW15G23   30.17F
BALTIMORE      MOSUNNY   82  41  23 SW13G22   30.20F
ANNAPOLIS      SUNNY     72  54  53 SE15      30.22F
ANDREWS AFB    SUNNY     82  45  26 S15G21    30.22F
PHILADELPHIA   MOSUNNY   83  46  27 W13G21    30.21F
HENDERSON NC   SUNNY     79  51  37 S8        30.29F
GREENSBORO     MOSUNNY   79  53  40 SW13      30.29F
ROCKY MOUNT    SUNNY     79  50  36 S10       30.31F
$$

VAZ100-041800-
MARINE

STATION/POSITION TIME  TEMP    WIND        PRES    WAVE   SWELL
                       AIR SEA DIR/SP/G            HT/PER HT/PER
                 (UTC) (F)     (DEG/KT/KT) (MB)    (FT/S) (FT/S)
BRANDYWINE LGT   1600   67 55  170/  8/  9 1024.7F
CAPE MAY NJ      1600   73 59  170/  5/  6 1024.5S
LEWES DE         1600   80 55  270/ 10/ 15 1024.4F
15NM E FENWICK I 1650   56 53              1024.9F   3/10
OCEAN-CITY-INLET 1600   63 53  190/  6/  9 1025.0F
WACHAPREAGUE VA  1600   78 65  220/  8/ 13 1025.8S
THOMAS POINT MD  1700   69 58  160/ 15/ 16 1024.1F
GOOSES REEF MD   1700   65 61                N/A     1
COVE POINT MD    1600   72     190/ 10/ 12 1025.4R
SOLOMONS ISLAND  1600      60                N/A
BISHOPS HEAD MD  1600   63 68  150/  8/  9 1025.0F
PINEY POINT MD   1600          150/  4/  6   N/A
CAMBRIDGE MD     1600   78 62  240/  8/ 12 1024.4F
LEWISETTA VA     1600   77 64              1024.7F
RAPPAHANNOCK LGT 1600          180/ 11/ 11 1026.5R
YORK RVR RNG VA  1600   71     230/  4/  5 1025.5
YORKTOWN VA      1600   75 62  230/  9/ 12 1025.6
JAMESTOWN VA     1700   76 66  200/  8/ 12 1024.4F
DOMINION TERM VA 1600   70     220/  8/  9 1026.3F
KIPTOPEKE VA     1600      64  210/  2/  4   N/A
CHES BAY BRIDGE  1600   69 59  270/  6/  7 1025.9F
CAPE HENRY VA    1600   77     220/  7/ 12 1024.9F
CHESAPEAKE LGHT  1600   66     230/  3/  3 1027.3S
WILLOUBY STN VA  1600   71     250/  8/  8 1026.9F
S CRANEY ISL VA  1600          200/  7/  9 1026.2
CAPE HENRY BUOY  1628      58                N/A     3/11   2/11
1ST LANDING BUOY 1700      62              1047.1    1/ 5
CAPE CHARLES BUO 1626      58                N/A     2/10   2/10
OFFSHORE WE BUOY 1611      55                N/A     3/11   3/11
64NM E OF VA BCH 1650   60 61  220/  8/ 10 1026.6F   3/12   3/12
DUCK PIER NC     1600   73 55  250/  9/ 12 1026.1
44056 DUCK FRF   1611      60                N/A     3/13   2/13
OREGON INLET NC  1600   70 63  120/  3/  9 1027.5R
HATTERAS NC      1600   71 63  270/  5/  7 1027.5R
DIAMOND SHLS NC  1650   69 78  290/  2/  4 1028.0S   4/10   3/10
CAPE LOOKOUT NC  1700   70     160/  7/  7 1027.6F
$$



USA.gov is the U.S. government's official web portal to all federal, state and local government web resources and services.